Location: Gadern
(49.5873°N, 8.8138°E)
Time: 09:51:34
(UTC+00:00)

Meteor 2-6 Rocket - Pass Details

Date: 19 May 2025
Orbit: 804 x 914 km, 81.3° (Epoch: 23 June)

Event Time Altitude Azimuth Distance (km) Brightness Sun altitude
Exits shadow 21:30:07 16° 193° (SSW) 2,158 5.9 -16.2°
Maximum altitude 21:34:54 86° 281° (W) 893 4.3 -16.5°
Drops below altitude 10° 21:40:40 10° 11° (N) 2,517 7.5 -16.9°
Sets 21:43:04 0° 12° (NNE) 3,441 8.3 -17.1°
